Washington, IA

5:28 PM CDT on September 23, 2017 (GMT -0500)
Washington Municipal

Weather History for KAWG - December, 2013

Change the Weather History Date:

Sunday, December 22, 2013

  Actual Average Record
Temperature  
Mean Temperature 22 °F -  
Max Temperature 28 °F 30 °F 55 °F (2001)
Min Temperature 14 °F 15 °F -9 °F (2000)
Degree Days  
Heating Degree Days 44    
Moisture  
Dew Point 20 °F    
Average Humidity 89    
Maximum Humidity 100    
Minimum Humidity 79    
Precipitation  
Precipitation 0.06 in - - ()
Sea Level Pressure  
Sea Level Pressure 29.96 in    
Wind  
Wind Speed 15 mph (NNW)    
Max Wind Speed 22 mph    
Max Gust Speed 26 mph    
Visibility 7 miles    
Events Rain , Snow    
Averages and records for this station are not official NWS values.
T = Trace of Precipitation, MM = Missing Value Source: NWS Daily Summary

Daily Weather History Graph

Daily Weather History Graph

Search for Another Location

Airport or City:

Trip Planner

Search our weather history database for the weather conditions in past years. The results will help you decide how hot, cold, wet, or windy it might be!

Date:

Astronomy

Dec. 22, 2013 Rise Set
Actual Time 7:29 AM CST 4:41 PM CST
Civil Twilight 6:58 AM CST 5:12 PM CST
Nautical Twilight 6:23 AM CST 5:47 PM CST
Astronomical Twilight 5:49 AM CST 6:21 PM CST
Moon 9:57 PM CST (12/22) 10:23 AM CST (12/22)
Length of Visible Light 10h 14m
Length of Day
9h 11m
Waning Gibbous, 76% of the Moon is Illuminated
Dec 22
Waning Gibbous
Dec 25
Last Quarter
Jan 1
New
Jan 7
First Quarter
Jan 15
Full

Hourly Weather History & Observations

Time (CST) Temp. Windchill Dew Point Humidity Pressure Visibility Wind Dir Wind Speed Gust Speed Precip Events Conditions
12:15 AM 28.4 °F 17.5 °F 28.4 °F 100% 29.70 in 0.8 mi NNE 13.8 mph - N/A Snow Light Snow
12:35 AM 28.4 °F 19.1 °F 28.4 °F 100% 29.71 in 1.5 mi NNE 10.4 mph - N/A Snow Light Snow
12:55 AM 28.4 °F 18.0 °F 28.4 °F 100% 29.70 in 1.2 mi NNE 12.7 mph - N/A Snow Light Snow
1:15 AM 28.4 °F 17.5 °F 28.4 °F 100% 29.69 in 0.8 mi NNE 13.8 mph - N/A Snow Light Snow
1:35 AM 28.4 °F 17.5 °F 28.4 °F 100% 29.69 in 0.8 mi NNE 13.8 mph - N/A Snow Light Snow
1:55 AM 28.4 °F 18.0 °F 28.4 °F 100% 29.69 in 0.8 mi NNE 12.7 mph - 0.01 in Snow Light Snow
2:15 AM 28.4 °F 18.0 °F 28.4 °F 100% 29.70 in 0.8 mi North 12.7 mph - N/A Snow Light Snow
2:35 AM 28.4 °F 18.0 °F 28.4 °F 100% 29.69 in 1.0 mi North 12.7 mph - N/A Snow Light Snow
2:55 AM 28.4 °F 17.5 °F 28.4 °F 100% 29.69 in 0.5 mi North 13.8 mph - N/A Snow Light Snow
3:15 AM 28.4 °F 18.0 °F 28.4 °F 100% 29.70 in 0.5 mi North 12.7 mph - N/A Snow Light Snow
3:35 AM 28.4 °F 18.5 °F 28.4 °F 100% 29.71 in 0.2 mi North 11.5 mph - N/A Snow Snow
3:55 AM 28.4 °F 17.5 °F 26.6 °F 93% 29.72 in 0.5 mi North 13.8 mph - 0.02 in Snow Light Snow
4:15 AM 28.4 °F 18.0 °F 26.6 °F 93% 29.73 in 0.2 mi North 12.7 mph - N/A Snow Snow
4:35 AM 28.4 °F 16.6 °F 26.6 °F 93% 29.73 in 0.2 mi North 16.1 mph 25.3 mph N/A Snow Snow
4:55 AM 28.4 °F - 26.6 °F 93% 29.75 in 0.2 mi North - - 0.01 in Snow Snow
5:15 AM 28.4 °F 20.4 °F 26.6 °F 93% 29.76 in 0.5 mi NNW 8.1 mph 18.4 mph N/A Snow Light Snow
5:35 AM 26.6 °F 15.2 °F 26.6 °F 100% 29.77 in 0.2 mi NNW 13.8 mph - N/A Snow Snow
5:55 AM 26.6 °F 15.2 °F 26.6 °F 100% 29.78 in 0.8 mi NNW 13.8 mph - 0.01 in Snow Light Snow
6:15 AM 26.6 °F 14.7 °F 26.6 °F 100% 29.79 in 0.8 mi NNW 15.0 mph 23.0 mph N/A Snow Light Snow
6:35 AM 26.6 °F 13.8 °F 24.8 °F 93% 29.80 in 1.0 mi North 17.3 mph - N/A Snow Light Snow
6:55 AM 26.6 °F 14.7 °F 24.8 °F 93% 29.81 in 2.5 mi North 15.0 mph 23.0 mph N/A   Overcast
7:15 AM 26.6 °F 14.3 °F 24.8 °F 93% 29.81 in - North 16.1 mph - N/A   Unknown
7:35 AM 24.8 °F 12.4 °F 24.8 °F 100% 29.82 in 2.0 mi North 15.0 mph - N/A   Overcast
7:55 AM 24.8 °F 12.4 °F 23.0 °F 93% 29.83 in 5.0 mi North 15.0 mph - N/A Rain Light Freezing Rain
8:15 AM 26.6 °F 13.8 °F 24.8 °F 93% 29.85 in 8.0 mi North 17.3 mph - N/A Rain Light Freezing Rain
8:35 AM 26.6 °F 14.7 °F 24.8 °F 93% 29.85 in 10.0 mi North 15.0 mph 21.9 mph N/A Rain Light Freezing Rain
8:55 AM 26.6 °F 14.3 °F 23.0 °F 86% 29.86 in 10.0 mi North 16.1 mph - N/A Rain Light Freezing Rain
9:15 AM 26.6 °F 15.2 °F 23.0 °F 86% 29.88 in 10.0 mi NNW 13.8 mph - N/A Rain Light Freezing Rain
9:35 AM 26.6 °F 14.7 °F 23.0 °F 86% 29.88 in 10.0 mi NNW 15.0 mph - N/A Rain Light Freezing Rain
9:55 AM 26.6 °F 13.8 °F 23.0 °F 86% 29.90 in 10.0 mi NNW 17.3 mph - N/A Rain Light Freezing Rain
10:15 AM 26.6 °F 15.2 °F 23.0 °F 86% 29.91 in 9.0 mi NNW 13.8 mph 20.7 mph N/A Rain Light Freezing Rain
10:35 AM 24.8 °F 11.9 °F 23.0 °F 93% 29.92 in 10.0 mi NNW 16.1 mph - N/A Rain Light Freezing Rain
10:55 AM 24.8 °F 11.5 °F 23.0 °F 93% 29.94 in 9.0 mi NW 17.3 mph - 0.01 in Rain Light Freezing Rain
11:15 AM 24.8 °F 11.9 °F 21.2 °F 86% 29.95 in 5.0 mi NW 16.1 mph - N/A Rain Light Freezing Rain
11:35 AM 24.8 °F 11.5 °F 21.2 °F 86% 29.94 in 4.0 mi NNW 17.3 mph - N/A Rain Light Freezing Rain
11:55 AM 24.8 °F 11.9 °F 21.2 °F 86% 29.95 in 10.0 mi NNW 16.1 mph - N/A   Overcast
12:15 PM 24.8 °F 11.9 °F 21.2 °F 86% 29.95 in 9.0 mi NNW 16.1 mph - N/A   Overcast
12:35 PM 24.8 °F 11.5 °F 19.4 °F 80% 29.96 in 10.0 mi NW 17.3 mph - N/A   Overcast
12:55 PM 23.0 °F 10.6 °F 19.4 °F 86% 29.96 in 3.0 mi NW 13.8 mph 25.3 mph N/A   Overcast
1:15 PM 23.0 °F 8.7 °F 19.4 °F 86% 29.96 in 10.0 mi NW 18.4 mph - N/A   Overcast
1:35 PM 24.8 °F 12.9 °F 19.4 °F 80% 29.98 in 10.0 mi NW 13.8 mph 20.7 mph N/A   Overcast
1:55 PM 24.8 °F 11.5 °F 19.4 °F 80% 29.99 in 10.0 mi WNW 17.3 mph - N/A   Overcast
2:15 PM 23.0 °F 9.2 °F 19.4 °F 86% 30.01 in 5.0 mi WNW 17.3 mph 24.2 mph N/A   Haze
2:35 PM 23.0 °F 10.1 °F 19.4 °F 86% 30.02 in 10.0 mi NW 15.0 mph 23.0 mph N/A   Overcast
2:55 PM 23.0 °F 8.7 °F 19.4 °F 86% 30.03 in 10.0 mi NW 18.4 mph - N/A Rain Light Freezing Rain
3:15 PM 23.0 °F 8.3 °F 17.6 °F 80% 30.04 in 10.0 mi WNW 19.6 mph 25.3 mph N/A Rain Light Freezing Rain
3:35 PM 21.2 °F 5.6 °F 15.8 °F 80% 30.06 in 10.0 mi WNW 20.7 mph 26.5 mph N/A   Overcast
3:55 PM 19.4 °F 4.1 °F 15.8 °F 86% 30.07 in 9.0 mi WNW 18.4 mph 25.3 mph N/A   Overcast
4:15 PM 19.4 °F 3.6 °F 15.8 °F 86% 30.08 in 10.0 mi WNW 19.6 mph - N/A Snow Light Snow
4:35 PM 17.6 °F 1.7 °F 14.0 °F 86% 30.08 in 9.0 mi WNW 18.4 mph - N/A Snow Light Snow
4:55 PM 17.6 °F 1.7 °F 14.0 °F 86% 30.09 in 10.0 mi WNW 18.4 mph - N/A   Overcast
5:15 PM 17.6 °F 2.7 °F 14.0 °F 86% 30.11 in 10.0 mi WNW 16.1 mph 23.0 mph N/A   Overcast
5:35 PM 17.6 °F 3.7 °F 14.0 °F 86% 30.12 in 10.0 mi WNW 13.8 mph 21.9 mph N/A Snow Light Snow
5:55 PM 17.6 °F 1.3 °F 12.2 °F 79% 30.13 in 10.0 mi WNW 19.6 mph 26.5 mph N/A Snow Light Snow
6:15 PM 17.6 °F 2.2 °F 12.2 °F 79% 30.13 in 10.0 mi WNW 17.3 mph - N/A   Overcast
6:35 PM 17.6 °F 1.7 °F 12.2 °F 79% 30.14 in 10.0 mi NW 18.4 mph - N/A   Overcast
6:55 PM 15.8 °F 0.9 °F 12.2 °F 86% 30.14 in 10.0 mi WNW 15.0 mph - N/A   Scattered Clouds
7:15 PM 15.8 °F 3.4 °F 12.2 °F 86% 30.16 in 10.0 mi WNW 10.4 mph - N/A   Mostly Cloudy
7:35 PM 15.8 °F 2.1 °F 12.2 °F 86% 30.17 in 10.0 mi WNW 12.7 mph - N/A   Overcast
7:55 PM 17.6 °F 3.2 °F 14.0 °F 86% 30.17 in 10.0 mi WNW 15.0 mph - N/A Snow Light Snow
8:15 PM 17.6 °F 2.7 °F 14.0 °F 86% 30.18 in 10.0 mi WNW 16.1 mph - N/A Snow Light Snow
8:35 PM 17.6 °F 4.3 °F 14.0 °F 86% 30.18 in 10.0 mi NW 12.7 mph 20.7 mph N/A   Overcast
8:55 PM 17.6 °F 3.2 °F 14.0 °F 86% 30.19 in 10.0 mi NW 15.0 mph 23.0 mph N/A Snow Light Snow
9:15 PM 17.6 °F 3.7 °F 12.2 °F 79% 30.19 in 10.0 mi NW 13.8 mph - N/A   Overcast
9:35 PM 17.6 °F 5.0 °F 14.0 °F 86% 30.21 in 10.0 mi WNW 11.5 mph - N/A   Overcast
9:55 PM 17.6 °F 3.7 °F 12.2 °F 79% 30.22 in 10.0 mi WNW 13.8 mph - N/A   Overcast
10:15 PM 17.6 °F 3.7 °F 12.2 °F 79% 30.22 in 10.0 mi WNW 13.8 mph - N/A   Overcast
10:35 PM 17.6 °F 2.7 °F 12.2 °F 79% 30.24 in - WNW 16.1 mph - N/A   Overcast
10:55 PM 15.8 °F 2.1 °F 12.2 °F 86% 30.25 in 10.0 mi WNW 12.7 mph - N/A   Overcast
11:15 PM 15.8 °F -1.9 °F 10.4 °F 79% 30.26 in 10.0 mi WNW 21.9 mph - N/A   Overcast
11:35 PM 15.8 °F - 10.4 °F 79% 30.26 in 10.0 mi North - - N/A   Overcast
11:55 PM 14.0 °F -2.5 °F 8.6 °F 79% 30.27 in 10.0 mi WNW 17.3 mph 23.0 mph N/A   Mostly Cloudy